Time,TemperatureF,DewpointF,PressureIn,WindDirection,WindDirectionDegrees,WindSpeedMPH,WindSpeedGustMPH,Humidity,HourlyPrecipIn,Conditions,Clouds,dailyrainin,SoftwareType,DateUTC
2013-03-02 00:01:00,39.0,28.0,30.36,NW,305,2.0,9.0,65,0.00,,,0.00,,2013-03-02 06:01:00,
2013-03-02 00:11:00,39.0,28.0,30.36,NW,305,2.0,9.0,65,0.00,,,0.00,,2013-03-02 06:11:00,
2013-03-02 00:21:00,38.0,28.0,30.37,SW,225,1.0,8.0,66,0.00,,,0.00,,2013-03-02 06:21:00,
2013-03-02 00:31:00,38.0,28.0,30.37,West,271,1.0,7.0,67,0.00,,,0.00,,2013-03-02 06:31:00,
2013-03-02 00:42:00,38.0,28.0,30.37,West,271,1.0,7.0,67,0.00,,,0.00,,2013-03-02 06:42:00,
2013-03-02 00:51:00,37.0,27.0,30.37,West,277,1.0,8.0,67,0.00,,,0.00,,2013-03-02 06:51:00,
2013-03-02 01:01:00,37.0,27.0,30.38,NW,309,1.0,7.0,68,0.00,,,0.00,,2013-03-02 07:01:00,
2013-03-02 01:11:00,36.0,27.0,30.38,WSW,253,0.0,5.0,69,0.00,,,0.00,,2013-03-02 07:11:00,
2013-03-02 01:21:00,36.0,27.0,30.38,WSW,253,0.0,5.0,69,0.00,,,0.00,,2013-03-02 07:21:00,
2013-03-02 01:32:00,36.0,28.0,30.39,WNW,293,1.0,3.0,71,0.00,,,0.00,,2013-03-02 07:32:00,
2013-03-02 01:42:00,36.0,28.0,30.39,WNW,293,1.0,3.0,71,0.00,,,0.00,,2013-03-02 07:42:00,
2013-03-02 01:51:00,35.0,27.0,30.39,WSW,239,1.0,5.0,73,0.00,,,0.00,,2013-03-02 07:51:00,
2013-03-02 02:01:00,35.0,27.0,30.39,SSW,212,1.0,8.0,73,0.00,,,0.00,,2013-03-02 08:01:00,
2013-03-02 02:11:00,35.0,27.0,30.39,SSW,212,1.0,8.0,73,0.00,,,0.00,,2013-03-02 08:11:00,
2013-03-02 02:21:00,35.0,27.0,30.39,West,271,1.0,8.0,73,0.00,,,0.00,,2013-03-02 08:21:00,
2013-03-02 02:32:00,35.0,27.0,30.39,WNW,293,1.0,7.0,73,0.00,,,0.00,,2013-03-02 08:32:00,
2013-03-02 02:42:00,35.0,27.0,30.39,WNW,293,1.0,7.0,73,0.00,,,0.00,,2013-03-02 08:42:00,
2013-03-02 02:52:00,34.0,26.0,30.39,WNW,291,0.0,5.0,73,0.00,,,0.00,,2013-03-02 08:52:00,
2013-03-02 03:01:00,34.0,26.0,30.39,SW,231,1.0,7.0,73,0.00,,,0.00,,2013-03-02 09:01:00,
2013-03-02 03:11:00,34.0,27.0,30.39,WSW,245,2.0,7.0,74,0.00,,,0.00,,2013-03-02 09:11:00,
2013-03-02 03:21:00,34.0,27.0,30.39,WSW,245,2.0,7.0,74,0.00,,,0.00,,2013-03-02 09:21:00,
2013-03-02 03:32:00,33.0,26.0,30.39,West,278,1.0,9.0,75,0.00,,,0.00,,2013-03-02 09:32:00,
2013-03-02 03:42:00,33.0,26.0,30.39,West,278,1.0,9.0,75,0.00,,,0.00,,2013-03-02 09:42:00,
2013-03-02 03:51:00,33.0,26.0,30.39,West,260,1.0,7.0,75,0.00,,,0.00,,2013-03-02 09:51:00,
2013-03-02 04:01:00,33.0,26.0,30.39,WSW,256,1.0,6.0,75,0.00,,,0.00,,2013-03-02 10:01:00,
2013-03-02 04:15:00,33.0,26.0,30.40,WNW,282,2.0,6.0,75,0.00,,,0.00,,2013-03-02 10:15:00,
2013-03-02 04:21:00,33.0,26.0,30.40,WNW,282,2.0,6.0,75,0.00,,,0.00,,2013-03-02 10:21:00,
2013-03-02 04:32:00,32.0,25.0,30.40,West,271,0.0,8.0,75,0.00,,,0.00,,2013-03-02 10:32:00,
2013-03-02 04:42:00,32.0,25.0,30.40,West,271,0.0,8.0,75,0.00,,,0.00,,2013-03-02 10:42:00,
2013-03-02 04:51:00,32.0,25.0,30.40,West,271,1.0,7.0,75,0.00,,,0.00,,2013-03-02 10:51:00,
2013-03-02 05:01:00,32.0,25.0,30.41,West,278,1.0,7.0,74,0.00,,,0.00,,2013-03-02 11:01:00,
2013-03-02 05:11:00,32.0,25.0,30.41,West,278,1.0,7.0,74,0.00,,,0.00,,2013-03-02 11:11:00,
2013-03-02 05:21:00,32.0,25.0,30.41,West,278,1.0,7.0,74,0.00,,,0.00,,2013-03-02 11:21:00,
2013-03-02 05:32:00,31.0,24.0,30.41,WNW,300,2.0,7.0,75,0.00,,,0.00,,2013-03-02 11:32:00,
2013-03-02 05:41:00,31.0,24.0,30.41,WNW,300,2.0,7.0,75,0.00,,,0.00,,2013-03-02 11:41:00,
2013-03-02 05:52:00,31.0,24.0,30.42,WNW,291,1.0,6.0,75,0.00,,,0.00,,2013-03-02 11:52:00,
2013-03-02 06:02:00,31.0,24.0,30.43,West,274,1.0,7.0,76,0.00,,,0.00,,2013-03-02 12:02:00,
2013-03-02 06:11:00,31.0,24.0,30.43,West,274,1.0,7.0,76,0.00,,,0.00,,2013-03-02 12:11:00,
2013-03-02 06:21:00,31.0,24.0,30.43,WNW,289,0.0,5.0,76,0.00,,,0.00,,2013-03-02 12:21:00,
2013-03-02 06:33:00,30.0,24.0,30.44,WNW,290,1.0,8.0,77,0.00,,,0.00,,2013-03-02 12:33:00,
2013-03-02 06:43:00,30.0,24.0,30.44,WNW,290,1.0,8.0,77,0.00,,,0.00,,2013-03-02 12:43:00,
2013-03-02 06:53:00,30.0,24.0,30.45,WNW,301,1.0,4.0,77,0.00,,,0.00,,2013-03-02 12:53:00,
2013-03-02 07:01:00,30.0,24.0,30.45,WNW,302,2.0,5.0,78,0.00,,,0.00,,2013-03-02 13:01:00,
2013-03-02 07:11:00,30.0,24.0,30.45,WNW,302,2.0,5.0,78,0.00,,,0.00,,2013-03-02 13:11:00,
2013-03-02 07:21:00,30.0,24.0,30.45,WNW,287,0.0,5.0,78,0.00,,,0.00,,2013-03-02 13:21:00,
2013-03-02 07:32:00,30.0,24.0,30.46,WSW,238,1.0,5.0,78,0.00,,,0.00,,2013-03-02 13:32:00,
2013-03-02 07:41:00,30.0,24.0,30.46,WSW,238,1.0,5.0,78,0.00,,,0.00,,2013-03-02 13:41:00,
2013-03-02 07:52:00,30.0,24.0,30.48,West,274,1.0,5.0,78,0.00,,,0.00,,2013-03-02 13:52:00,
2013-03-02 08:01:00,31.0,24.0,30.48,WNW,282,0.0,3.0,74,0.00,,,0.00,,2013-03-02 14:01:00,
2013-03-02 08:11:00,31.0,24.0,30.48,WNW,282,0.0,3.0,74,0.00,,,0.00,,2013-03-02 14:11:00,
2013-03-02 08:21:00,32.0,24.0,30.49,NW,308,1.0,6.0,71,0.00,,,0.00,,2013-03-02 14:21:00,
2013-03-02 08:32:00,33.0,24.0,30.50,NW,316,1.0,6.0,68,0.00,,,0.00,,2013-03-02 14:32:00,
2013-03-02 08:42:00,33.0,24.0,30.50,NW,316,1.0,6.0,68,0.00,,,0.00,,2013-03-02 14:42:00,
2013-03-02 08:52:00,33.0,22.0,30.50,NNE,14,1.0,7.0,64,0.00,,,0.00,,2013-03-02 14:52:00,
2013-03-02 09:02:00,34.0,22.0,30.50,NW,321,1.0,7.0,60,0.00,,,0.00,,2013-03-02 15:02:00,
2013-03-02 09:11:00,34.0,22.0,30.50,NW,321,1.0,7.0,60,0.00,,,0.00,,2013-03-02 15:11:00,
2013-03-02 09:21:00,35.0,21.0,30.51,West,267,0.0,7.0,57,0.00,,,0.00,,2013-03-02 15:21:00,
2013-03-02 09:32:00,36.0,21.0,30.50,NNW,338,1.0,7.0,54,0.00,,,0.00,,2013-03-02 15:32:00,
2013-03-02 09:41:00,36.0,21.0,30.50,NNW,338,1.0,7.0,54,0.00,,,0.00,,2013-03-02 15:41:00,
2013-03-02 09:52:00,36.0,21.0,30.50,NW,314,2.0,7.0,53,0.00,,,0.00,,2013-03-02 15:52:00,
2013-03-02 10:01:00,36.0,20.0,30.50,NW,316,1.0,9.0,52,0.00,,,0.00,,2013-03-02 16:01:00,
2013-03-02 10:11:00,36.0,20.0,30.50,NW,316,1.0,9.0,52,0.00,,,0.00,,2013-03-02 16:11:00,
2013-03-02 10:21:00,37.0,21.0,30.50,West,275,1.0,8.0,52,0.00,,,0.00,,2013-03-02 16:21:00,
2013-03-02 10:32:00,37.0,21.0,30.50,West,275,1.0,8.0,52,0.00,,,0.00,,2013-03-02 16:32:00,
2013-03-02 10:41:00,37.0,21.0,30.50,West,275,1.0,8.0,52,0.00,,,0.00,,2013-03-02 16:41:00,
2013-03-02 10:51:00,39.0,21.0,30.51,West,266,2.0,10.0,49,0.00,,,0.00,,2013-03-02 16:51:00,
2013-03-02 11:01:00,39.0,21.0,30.50,WNW,293,1.0,9.0,48,0.00,,,0.00,,2013-03-02 17:01:00,
2013-03-02 11:11:00,40.0,22.0,30.49,WNW,302,1.0,9.0,48,0.00,,,0.00,,2013-03-02 17:11:00,
2013-03-02 11:21:00,40.0,22.0,30.49,WNW,302,1.0,9.0,48,0.00,,,0.00,,2013-03-02 17:21:00,
2013-03-02 11:32:00,40.0,22.0,30.49,WNW,302,1.0,9.0,48,0.00,,,0.00,,2013-03-02 17:32:00,
2013-03-02 11:42:00,40.0,22.0,30.49,WNW,302,1.0,9.0,48,0.00,,,0.00,,2013-03-02 17:42:00,
2013-03-02 11:52:00,42.0,23.0,30.49,NNW,336,0.0,7.0,46,0.00,,,0.00,,2013-03-02 17:52:00,
2013-03-02 12:02:00,43.0,23.0,30.48,SW,215,1.0,6.0,44,0.00,,,0.00,,2013-03-02 18:02:00,
2013-03-02 12:11:00,43.0,23.0,30.48,SW,215,1.0,6.0,44,0.00,,,0.00,,2013-03-02 18:11:00,
2013-03-02 12:22:00,44.0,23.0,30.47,North,6,1.0,5.0,43,0.00,,,0.00,,2013-03-02 18:22:00,
2013-03-02 12:32:00,45.0,23.0,30.46,West,277,1.0,9.0,41,0.00,,,0.00,,2013-03-02 18:32:00,
2013-03-02 12:42:00,45.0,23.0,30.46,West,277,1.0,9.0,41,0.00,,,0.00,,2013-03-02 18:42:00,
2013-03-02 12:52:00,45.0,22.0,30.45,WNW,300,1.0,8.0,39,0.00,,,0.00,,2013-03-02 18:52:00,
2013-03-02 13:01:00,47.0,23.0,30.44,NW,321,1.0,4.0,39,0.00,,,0.00,,2013-03-02 19:01:00,
2013-03-02 13:11:00,47.0,23.0,30.44,NW,321,1.0,4.0,39,0.00,,,0.00,,2013-03-02 19:11:00,
2013-03-02 13:21:00,47.0,23.0,30.43,SE,141,1.0,5.0,38,0.00,,,0.00,,2013-03-02 19:21:00,
2013-03-02 13:32:00,48.0,23.0,30.42,North,353,2.0,9.0,37,0.00,,,0.00,,2013-03-02 19:32:00,
2013-03-02 13:42:00,48.0,23.0,30.42,North,353,2.0,9.0,37,0.00,,,0.00,,2013-03-02 19:42:00,
2013-03-02 13:52:00,48.0,22.0,30.42,WSW,239,2.0,6.0,36,0.00,,,0.00,,2013-03-02 19:52:00,
2013-03-02 14:01:00,49.0,23.0,30.41,NW,314,1.0,5.0,36,0.00,,,0.00,,2013-03-02 20:01:00,
2013-03-02 14:11:00,49.0,23.0,30.41,NW,314,1.0,5.0,36,0.00,,,0.00,,2013-03-02 20:11:00,
2013-03-02 14:21:00,49.0,23.0,30.40,WSW,248,1.0,8.0,36,0.00,,,0.00,,2013-03-02 20:21:00,
2013-03-02 14:32:00,49.0,23.0,30.40,WSW,248,1.0,8.0,36,0.00,,,0.00,,2013-03-02 20:32:00,
2013-03-02 14:42:00,49.0,23.0,30.40,WSW,248,1.0,8.0,36,0.00,,,0.00,,2013-03-02 20:42:00,
2013-03-02 14:52:00,50.0,25.0,30.38,NNW,332,2.0,8.0,37,0.00,,,0.00,,2013-03-02 20:52:00,
2013-03-02 15:02:00,50.0,25.0,30.38,NNW,332,2.0,8.0,37,0.00,,,0.00,,2013-03-02 21:02:00,
2013-03-02 15:11:00,50.0,25.0,30.38,NNW,332,2.0,8.0,37,0.00,,,0.00,,2013-03-02 21:11:00,
2013-03-02 15:22:00,51.0,25.0,30.37,WNW,285,2.0,9.0,36,0.00,,,0.00,,2013-03-02 21:22:00,
2013-03-02 15:32:00,52.0,27.0,30.36,WNW,285,0.0,4.0,37,0.00,,,0.00,,2013-03-02 21:32:00,
2013-03-02 15:42:00,52.0,27.0,30.36,WNW,285,0.0,4.0,37,0.00,,,0.00,,2013-03-02 21:42:00,
2013-03-02 15:52:00,53.0,26.0,30.35,WNW,289,1.0,4.0,35,0.00,,,0.00,,2013-03-02 21:52:00,
2013-03-02 16:02:00,53.0,26.0,30.35,SW,219,1.0,5.0,35,0.00,,,0.00,,2013-03-02 22:02:00,
2013-03-02 16:11:00,53.0,26.0,30.35,SW,219,1.0,5.0,35,0.00,,,0.00,,2013-03-02 22:11:00,
2013-03-02 16:21:00,54.0,27.0,30.34,SW,225,0.0,4.0,35,0.00,,,0.00,,2013-03-02 22:21:00,
2013-03-02 16:32:00,54.0,26.0,30.34,West,270,1.0,6.0,34,0.00,,,0.00,,2013-03-02 22:32:00,
2013-03-02 16:42:00,54.0,26.0,30.34,West,270,1.0,6.0,34,0.00,,,0.00,,2013-03-02 22:42:00,
2013-03-02 16:51:00,54.0,27.0,30.34,SW,224,1.0,5.0,35,0.00,,,0.00,,2013-03-02 22:51:00,
2013-03-02 17:01:00,54.0,27.0,30.34,WSW,238,1.0,7.0,35,0.00,,,0.00,,2013-03-02 23:01:00,
2013-03-02 17:11:00,54.0,27.0,30.34,WSW,250,1.0,8.0,35,0.00,,,0.00,,2013-03-02 23:11:00,
2013-03-02 17:21:00,54.0,27.0,30.34,WSW,250,1.0,8.0,35,0.00,,,0.00,,2013-03-02 23:21:00,
2013-03-02 17:32:00,53.0,26.0,30.33,SW,221,0.0,5.0,35,0.00,,,0.00,,2013-03-02 23:32:00,
2013-03-02 17:42:00,53.0,26.0,30.33,SW,221,0.0,5.0,35,0.00,,,0.00,,2013-03-02 23:42:00,
2013-03-02 17:52:00,53.0,27.0,30.33,WNW,293,1.0,4.0,37,0.00,,,0.00,,2013-03-02 23:52:00,
2013-03-02 18:02:00,52.0,27.0,30.33,SW,232,0.0,4.0,38,0.00,,,0.00,,2013-03-03 00:02:00,
2013-03-02 18:11:00,52.0,27.0,30.33,SW,232,0.0,4.0,38,0.00,,,0.00,,2013-03-03 00:11:00,
2013-03-02 18:22:00,51.0,26.0,30.34,WNW,295,0.0,4.0,38,0.00,,,0.00,,2013-03-03 00:22:00,
2013-03-02 18:32:00,50.0,27.0,30.33,WNW,293,0.0,1.0,40,0.00,,,0.00,,2013-03-03 00:32:00,
2013-03-02 18:42:00,50.0,27.0,30.33,WNW,293,0.0,1.0,40,0.00,,,0.00,,2013-03-03 00:42:00,
2013-03-02 18:52:00,49.0,27.0,30.33,NNW,339,0.0,3.0,42,0.00,,,0.00,,2013-03-03 00:52:00,
2013-03-02 19:01:00,48.0,27.0,30.33,NNW,340,0.0,0.0,44,0.00,,,0.00,,2013-03-03 01:01:00,
2013-03-02 19:11:00,48.0,27.0,30.33,NNW,340,0.0,0.0,44,0.00,,,0.00,,2013-03-03 01:11:00,
2013-03-02 19:21:00,46.0,27.0,30.33,NNW,340,0.0,0.0,47,0.00,,,0.00,,2013-03-03 01:21:00,
2013-03-02 19:32:00,44.0,28.0,30.33,NNW,340,0.0,0.0,52,0.00,,,0.00,,2013-03-03 01:32:00,
2013-03-02 19:41:00,44.0,28.0,30.33,NNW,340,0.0,0.0,52,0.00,,,0.00,,2013-03-03 01:41:00,
2013-03-02 19:52:00,43.0,29.0,30.32,NNW,340,0.0,0.0,57,0.00,,,0.00,,2013-03-03 01:52:00,
2013-03-02 20:01:00,42.0,30.0,30.32,NNW,340,0.0,0.0,61,0.00,,,0.00,,2013-03-03 02:01:00,
2013-03-02 20:11:00,41.0,30.0,30.33,NNW,340,0.0,0.0,64,0.00,,,0.00,,2013-03-03 02:11:00,
2013-03-02 20:21:00,41.0,30.0,30.33,NNW,340,0.0,0.0,64,0.00,,,0.00,,2013-03-03 02:21:00,
2013-03-02 20:32:00,40.0,30.0,30.32,NNW,340,0.0,0.0,67,0.00,,,0.00,,2013-03-03 02:32:00,
2013-03-02 20:41:00,40.0,30.0,30.32,NNW,340,0.0,0.0,67,0.00,,,0.00,,2013-03-03 02:41:00,
2013-03-02 20:52:00,40.0,30.0,30.32,NNW,340,0.0,0.0,67,0.00,,,0.00,,2013-03-03 02:52:00,
2013-03-02 21:01:00,40.0,31.0,30.32,NNW,340,0.0,0.0,69,0.00,,,0.00,,2013-03-03 03:01:00,
2013-03-02 21:11:00,40.0,31.0,30.32,NNW,340,0.0,0.0,69,0.00,,,0.00,,2013-03-03 03:11:00,
2013-03-02 21:21:00,39.0,30.0,30.32,NNW,340,0.0,0.0,70,0.00,,,0.00,,2013-03-03 03:21:00,
2013-03-02 21:31:00,39.0,31.0,30.32,NNW,340,0.0,0.0,72,0.00,,,0.00,,2013-03-03 03:31:00,
2013-03-02 21:41:00,39.0,31.0,30.32,NNW,340,0.0,0.0,72,0.00,,,0.00,,2013-03-03 03:41:00,
2013-03-02 21:51:00,38.0,30.0,30.32,NNW,340,0.0,0.0,73,0.00,,,0.00,,2013-03-03 03:51:00,
2013-03-02 22:01:00,38.0,30.0,30.32,NNW,340,0.0,0.0,73,0.00,,,0.00,,2013-03-03 04:01:00,
2013-03-02 22:11:00,38.0,30.0,30.32,NNW,340,0.0,0.0,73,0.00,,,0.00,,2013-03-03 04:11:00,
2013-03-02 22:21:00,38.0,30.0,30.32,NNW,340,0.0,0.0,73,0.00,,,0.00,,2013-03-03 04:21:00,
2013-03-02 22:32:00,38.0,30.0,30.32,NNW,340,0.0,0.0,73,0.00,,,0.00,,2013-03-03 04:32:00,
2013-03-02 22:41:00,38.0,30.0,30.32,NNW,340,0.0,0.0,73,0.00,,,0.00,,2013-03-03 04:41:00,
2013-03-02 22:51:00,37.0,29.0,30.32,NNW,340,0.0,0.0,74,0.00,,,0.00,,2013-03-03 04:51:00,
2013-03-02 23:02:00,37.0,30.0,30.32,NNW,340,0.0,0.0,75,0.00,,,0.00,,2013-03-03 05:02:00,
2013-03-02 23:11:00,37.0,30.0,30.32,NNW,340,0.0,0.0,75,0.00,,,0.00,,2013-03-03 05:11:00,
2013-03-02 23:22:00,37.0,30.0,30.32,NNW,340,0.0,0.0,75,0.00,,,0.00,,2013-03-03 05:22:00,
2013-03-02 23:32:00,37.0,30.0,30.31,NNW,340,0.0,0.0,75,0.00,,,0.00,,2013-03-03 05:32:00,
2013-03-02 23:42:00,37.0,30.0,30.31,NNW,340,0.0,0.0,75,0.00,,,0.00,,2013-03-03 05:42:00,
2013-03-02 23:52:00,37.0,29.0,30.30,NNW,340,0.0,0.0,74,0.00,,,0.00,,2013-03-03 05:52:00,